{"data":{"norad_id":60332,"intl_designator":"2024-136D","name":"STARLINK-32171","alt_names":[],"object_type":"PAYLOAD","status":"ACTIVE","operator":null,"country":"US","launch_date":"2024-08-02","launch_site_code":"AFETR","launch_vehicle":null,"mission":null,"orbit_class":"UNKNOWN","rcs_meters":null,"size_class":null,"mass_kg":null,"dimensions":null,"purposes":["comms"],"wikipedia_slug":null,"has_3d_model":false,"image_url":null,"decayed_at":null,"tle_current":{"epoch":"2026-05-25T01:55:57.968256Z","epoch_age_seconds":65304,"freshness":"FRESH","line1":"1 60332U 24136D   26145.08053204  .00000134  00000+0  16660-4 0  9990","line2":"2 60332  53.1600  80.6149 0001648  91.4289 268.6901 15.30189657101369","mean_motion":15.30189657,"eccentricity":0.0001648,"inclination_deg":53.16,"raan_deg":80.6149,"arg_perigee_deg":91.4289,"mean_anomaly_deg":268.6901,"bstar":1.666e-5,"rev_number":10136,"period_min":94.105981792034,"perigee_km":474.11651441646,"apogee_km":476.37538943742,"semimajor_km":6853.3829519269,"source":"CELESTRAK","updated_at":"2026-05-25T13:38:19.233286Z"}}}